Date String (YYYY-MM-DD hh:mm:ss) UTC,Instrument flags,Ambient pressure (hPa),Sample flow (lpm),Bypass flow (lpm),Sample temperature (°C),Ambient temperature (°C),ASC tube jacket temperature (°C),LED temperature (°C),Box temperature (°C),Sample RH (%),Span deviation,Mass concentration (μg/m³),Mass concentration (μg/m³),Mass concentration (μg/m³)
DateTimeUTC,F1_M11,P_M11,Q1_M11,Q2_M11,T1_M11,T2_M11,T3_M11,T4_M11,T5_M11,U1_M11,ZSPAN_M11,X0_M11,X2_M11,X1_M11
2022-10-17 14:00:00,,0833.4,5.00,0.00,23.7,22.3,00.0,32.6,25.6,15.0,0000.0,0008.53,0005.15,0004.75
2022-10-17 14:01:00,,0833.5,5.01,0.00,23.7,22.3,00.0,32.6,25.6,15.1,0000.0,0008.29,0005.15,0004.74
2022-10-17 14:02:00,,0833.5,4.99,0.00,23.7,22.3,00.0,32.6,25.6,15.1,0000.0,0008.13,0005.13,0004.74
2022-10-17 14:03:00,,0833.5,5.01,0.00,23.8,22.3,00.0,32.6,25.6,15.2,0000.0,0008.13,0005.12,0004.74
2022-10-17 14:04:00,,0833.5,5.01,0.00,23.8,22.3,00.0,32.6,25.6,15.2,0000.0,0008.19,0005.15,0004.74
2022-10-17 14:05:00,,0833.5,4.98,0.00,23.8,22.3,00.0,32.6,25.6,15.2,0000.0,0008.28,0005.15,0004.74
2022-10-17 14:06:00,,0833.5,5.00,0.00,23.8,22.4,00.0,32.6,25.6,15.3,0000.0,0008.51,0005.19,0004.75
2022-10-17 14:07:00,,0833.5,5.01,0.00,23.8,22.4,00.0,32.6,25.6,15.3,0000.0,0008.59,0005.20,0004.76
2022-10-17 14:08:00,,0833.5,5.01,0.00,23.8,22.4,00.0,32.6,25.6,15.3,0000.0,0008.64,0005.20,0004.76
2022-10-17 14:09:00,,0833.5,4.98,0.00,23.8,22.4,00.0,32.6,25.6,15.5,0000.0,0008.66,0005.23,0004.76
2022-10-17 14:10:00,,0833.5,5.01,0.00,23.8,22.4,00.0,32.6,25.6,15.7,0000.0,0008.65,0005.24,0004.77
2022-10-17 14:11:00,,0833.5,5.00,0.00,23.8,22.4,00.0,32.6,25.6,15.4,0000.0,0008.57,0005.24,0004.78
2022-10-17 14:12:00,,0833.5,4.99,0.00,23.8,22.4,00.0,32.6,25.6,15.4,0000.0,0008.57,0005.25,0004.79
2022-10-17 14:13:00,,0833.6,5.01,0.00,23.8,22.4,00.0,32.6,25.6,15.6,0000.0,0008.50,0005.25,0004.79
2022-10-17 14:14:00,,0833.6,5.00,0.00,23.8,22.4,00.0,32.6,25.6,15.7,0000.0,0008.61,0005.26,0004.79
2022-10-17 14:15:00,,0833.5,5.00,0.00,23.8,22.4,00.0,32.6,25.6,15.7,0000.0,0008.69,0005.26,0004.76
2022-10-17 14:16:00,,0833.6,5.00,0.00,23.8,22.4,00.0,32.6,25.6,15.7,0000.0,0008.86,0005.25,0004.76
2022-10-17 14:17:00,,0833.5,4.99,0.00,23.8,22.5,00.0,32.6,25.6,15.8,0000.0,0009.25,0005.20,0004.73
2022-10-17 14:18:00,,0833.6,5.00,0.00,23.8,22.5,00.0,32.6,25.7,15.9,0000.0,0009.09,0005.16,0004.70
2022-10-17 14:19:00,,0833.6,5.01,0.00,23.8,22.5,00.0,32.6,25.7,15.8,0000.0,0009.08,0005.13,0004.68
2022-10-17 14:20:00,,0833.6,5.01,0.00,23.8,22.5,00.0,32.6,25.6,15.3,0000.0,0008.97,0005.07,0004.66
2022-10-17 14:21:00,,0833.5,5.00,0.00,23.8,22.5,00.0,32.6,25.7,15.3,0000.0,0009.66,0005.04,0004.62
2022-10-17 14:22:00,,0833.6,4.99,0.00,23.8,22.5,00.0,32.6,25.7,15.5,0000.0,0010.27,0005.05,0004.59
2022-10-17 14:23:00,,0833.6,5.01,0.00,23.8,22.5,00.0,32.6,25.7,15.6,0000.0,0010.19,0005.01,0004.56
2022-10-17 14:24:00,,0833.6,4.99,0.00,23.8,22.5,00.0,32.6,25.7,15.8,0000.0,0010.12,0004.97,0004.54
2022-10-17 14:25:00,,0833.6,4.99,0.00,23.8,22.6,00.0,32.7,25.7,16.0,0000.0,0010.02,0004.95,0004.53
2022-10-17 14:26:00,,0833.6,5.00,0.00,23.9,22.6,00.0,32.7,25.8,15.8,0000.0,0009.94,0004.90,0004.52
2022-10-17 14:27:00,,0833.6,4.99,0.00,23.9,22.6,00.0,32.7,25.9,15.1,0000.0,0009.76,0004.87,0004.49
2022-10-17 14:28:00,,0833.6,5.02,0.00,23.9,22.6,00.0,32.7,25.9,15.2,0000.0,0008.85,0004.84,0004.48
2022-10-17 14:29:00,,0833.6,4.99,0.00,23.9,22.6,00.0,32.7,25.9,15.2,0000.0,0008.97,0004.86,0004.48
2022-10-17 14:30:00,,0833.6,5.01,0.00,23.9,22.7,00.0,32.7,25.9,15.0,0000.0,0008.93,0004.84,0004.47
2022-10-17 14:31:00,,0833.6,4.99,0.00,23.9,22.7,00.0,32.7,25.9,14.9,0000.0,0008.86,0004.82,0004.46
2022-10-17 14:32:00,,0833.6,5.01,0.00,23.9,22.7,00.0,32.7,25.9,14.8,0000.0,0008.21,0004.80,0004.46
2022-10-17 14:33:00,,0833.6,4.99,0.00,23.9,22.7,00.0,32.7,25.9,14.8,0000.0,0007.55,0004.76,0004.46
2022-10-17 14:34:00,,0833.7,5.01,0.00,23.9,22.7,00.0,32.7,25.9,14.7,0000.0,0007.50,0004.74,0004.45
2022-10-17 14:35:00,,0833.6,4.99,0.00,24.0,22.7,00.0,32.7,25.9,14.8,0000.0,0007.61,0004.77,0004.43
2022-10-17 14:36:00,,0833.6,5.01,0.00,24.0,22.8,00.0,32.8,25.9,15.4,0000.0,0007.74,0004.77,0004.42
2022-10-17 14:37:00,,0833.7,4.99,0.00,24.0,22.8,00.0,32.8,25.9,15.6,0000.0,0008.18,0004.79,0004.41
2022-10-17 14:38:00,,0833.7,5.01,0.00,24.0,22.8,00.0,32.8,25.9,15.3,0000.0,0008.47,0004.82,0004.43
2022-10-17 14:39:00,,0833.7,4.99,0.00,24.0,22.8,00.0,32.8,26.0,15.7,0000.0,0009.45,0004.84,0004.43
2022-10-17 14:40:00,,0833.7,4.99,0.00,24.0,22.8,00.0,32.8,26.0,16.1,0000.0,0009.74,0004.82,0004.43
2022-10-17 14:41:00,,0833.7,5.01,0.00,24.0,22.9,00.0,32.8,26.0,16.0,0000.0,0009.75,0004.83,0004.43
2022-10-17 14:42:00,,0833.7,4.99,0.00,24.1,22.9,00.0,32.8,26.0,15.8,0000.0,0009.96,0004.89,0004.43
2022-10-17 14:43:00,,0833.7,5.01,0.00,24.1,22.9,00.0,32.8,26.0,16.1,0000.0,0010.13,0004.93,0004.44
2022-10-17 14:44:00,,0833.7,5.01,0.00,24.1,22.9,00.0,32.8,26.0,16.1,0000.0,0010.24,0004.97,0004.45
2022-10-17 14:45:00,,0833.7,4.99,0.00,24.1,22.9,00.0,32.8,26.1,16.1,0000.0,0010.39,0005.02,0004.45
2022-10-17 14:46:00,,0833.7,5.01,0.00,24.1,23.0,00.0,32.9,26.1,16.0,0000.0,0010.46,0005.04,0004.45
2022-10-17 14:47:00,,0833.7,5.01,0.00,24.1,23.0,00.0,32.9,26.1,15.5,0000.0,0010.36,0005.05,0004.47
2022-10-17 14:48:00,,0833.7,4.99,0.00,24.1,23.0,00.0,32.9,26.1,15.9,0000.0,0010.08,0005.08,0004.48
2022-10-17 14:49:00,,0833.7,5.01,0.00,24.2,23.0,00.0,32.9,26.1,16.2,0000.0,0010.34,0005.08,0004.48
2022-10-17 14:50:00,,0833.7,4.98,0.00,24.2,23.0,00.0,32.9,26.1,16.1,0000.0,0009.51,0005.12,0004.49
2022-10-17 14:51:00,,0833.7,5.01,0.00,24.2,23.0,00.0,32.9,26.1,16.2,0000.0,0009.26,0005.14,0004.51
2022-10-17 14:52:00,,0833.8,5.01,0.00,24.2,23.0,00.0,32.9,26.2,15.8,0000.0,0009.17,0005.12,0004.50
2022-10-17 14:53:00,,0833.8,5.00,0.00,24.2,23.0,00.0,32.9,26.2,15.4,0000.0,0009.02,0005.09,0004.52
2022-10-17 14:54:00,,0833.9,4.99,0.00,24.2,23.1,00.0,33.0,26.2,15.6,0000.0,0008.97,0005.09,0004.53
2022-10-17 14:55:00,,0833.8,5.01,0.00,24.2,23.1,00.0,33.0,26.2,15.6,0000.0,0008.88,0005.08,0004.54
2022-10-17 14:56:00,,0833.9,5.01,0.00,24.2,23.1,00.0,33.0,26.2,15.4,0000.0,0008.83,0005.06,0004.55
2022-10-17 14:57:00,,0833.8,5.00,0.00,24.3,23.1,00.0,33.0,26.2,15.3,0000.0,0008.89,0005.07,0004.55
2022-10-17 14:58:00,,0833.9,4.99,0.00,24.3,23.1,00.0,33.0,26.2,14.5,0000.0,0009.47,0005.04,0004.54
2022-10-17 14:59:00,,0833.9,5.01,0.00,24.3,23.2,00.0,33.0,26.3,14.8,0000.0,0010.51,0005.00,0004.55
